This is the latest recevied weather packets stored in our database for station/object HS2LXA-WX. If no packets are shown the sender has not sent any weather packets the latest 10 day(s).
| Time | Temp. | Humidity | Pressure | Rain* | Wind** | Luminosity | Snow |
|---|---|---|---|---|---|---|---|
| 1778233595 | 30° C | 70% | 1013.2 hPa | 0 mm | - | - | - |
| 1778232995 | 30.56° C | 69% | 1013.1 hPa | 0 mm | - | - | - |
| 1778232395 | 30.56° C | 69% | 1013.2 hPa | 0 mm | - | - | - |
| 1778231792 | 30.56° C | 68% | 1013.2 hPa | 0 mm | - | - | - |
| 1778231193 | 30.56° C | 67% | 1013.1 hPa | 0 mm | - | - | - |
| 1778230591 | 30.56° C | 67% | 1013.1 hPa | 0 mm | - | - | - |
| 1778229991 | 30.56° C | 66% | 1013.1 hPa | 0 mm | - | - | - |
| 1778229391 | 30° C | 67% | 1013.2 hPa | 0 mm | - | - | - |
| 1778228791 | 29.44° C | 70% | 1013.1 hPa | 0 mm | - | - | - |
| 1778228191 | 28.89° C | 70% | 1013.1 hPa | 0 mm | - | - | - |
| 1778227591 | 28.89° C | 68% | 1013.1 hPa | 0 mm | - | - | - |
| 1778226991 | 29.44° C | 67% | 1013.1 hPa | 0 mm | - | - | - |
| 1778226391 | 30° C | 66% | 1013.2 hPa | 0 mm | - | - | - |
| 1778225791 | 31.11° C | 66% | 1013.1 hPa | 0 mm | - | - | - |
| 1778225187 | 32.78° C | 75% | 1013.1 hPa | 0 mm | - | - | - |
| 1778224262 | 33.33° C | 75% | 1013.1 hPa | 0 mm | - | - | - |
| 1778223256 | 33.33° C | 76% | 1013.1 hPa | 0 mm | - | - | - |
| 1778222657 | 33.89° C | 75% | 1013.1 hPa | 0 mm | - | - | - |
| 1778222056 | 33.33° C | 75% | 1013.1 hPa | 0 mm | - | - | - |
| 1778221456 | 33.33° C | 77% | 1013.2 hPa | 0 mm | - | - | - |
| 1778220856 | 33.33° C | 77% | 1013.1 hPa | 0 mm | - | - | - |
| 1778220256 | 33.33° C | 79% | 1013.1 hPa | 0 mm | - | - | - |
| 1778219656 | 33.89° C | 75% | 1013.1 hPa | 0 mm | - | - | - |
| 1778219055 | 33.33° C | 76% | 1013.1 hPa | 0 mm | - | - | - |
| 1778218455 | 33.33° C | 76% | 1013.1 hPa | 0 mm | - | - | - |
* Rain latest hour (hover to see other rain measurements)
** Current wind speed in m/s (hover to see current wind gust speed)